Time,TemperatureF,DewpointF,PressureIn,WindDirection,WindDirectionDegrees,WindSpeedMPH,WindSpeedGustMPH,Humidity,HourlyPrecipIn,Conditions,Clouds,dailyrainin,SoftwareType,DateUTC
2013-02-17 00:06:00,49.3,45.1,30.13,SW,225,0.0,0.0,85,0.00,,,0.00,meteohub,2013-02-16 23:06:00,
2013-02-17 00:22:00,49.5,45.1,30.13,SW,225,0.0,0.0,85,0.00,,,0.00,meteohub,2013-02-16 23:22:00,
2013-02-17 00:37:00,48.9,44.6,30.13,SW,225,0.0,0.0,85,0.00,,,0.00,meteohub,2013-02-16 23:37:00,
2013-02-17 00:53:00,48.7,44.8,30.12,SW,225,0.0,0.0,86,0.00,,,0.00,meteohub,2013-02-16 23:53:00,
2013-02-17 01:08:00,48.6,44.6,30.12,SW,225,0.0,0.0,86,0.00,,,0.00,meteohub,2013-02-17 00:08:00,
2013-02-17 01:23:00,48.0,44.4,30.12,SW,225,0.0,0.0,87,0.00,,,0.00,meteohub,2013-02-17 00:23:00,
2013-02-17 01:39:00,47.8,43.9,30.12,SW,225,0.0,0.0,86,0.00,,,0.00,meteohub,2013-02-17 00:39:00,
2013-02-17 01:54:00,47.7,44.1,30.12,SW,225,0.0,0.0,87,0.00,,,0.00,meteohub,2013-02-17 00:54:00,
2013-02-17 02:10:00,47.5,44.1,30.12,SW,225,0.0,0.0,88,0.00,,,0.00,meteohub,2013-02-17 01:10:00,
2013-02-17 02:25:00,47.7,44.8,30.12,SW,225,0.0,0.0,89,0.00,,,0.00,meteohub,2013-02-17 01:25:00,
2013-02-17 02:41:00,47.7,44.6,30.11,SW,225,0.0,0.0,89,0.00,,,0.00,meteohub,2013-02-17 01:41:00,
2013-02-17 02:56:00,46.9,43.9,30.11,SW,225,0.0,0.0,89,0.00,,,0.00,meteohub,2013-02-17 01:56:00,
2013-02-17 03:11:00,46.8,44.1,30.10,SW,225,0.0,0.0,90,0.00,,,0.00,meteohub,2013-02-17 02:11:00,
2013-02-17 03:27:00,46.2,43.7,30.10,SW,225,0.0,0.0,91,0.00,,,0.00,meteohub,2013-02-17 02:27:00,
2013-02-17 03:42:00,46.2,43.7,30.09,SW,225,0.0,0.0,91,0.00,,,0.00,meteohub,2013-02-17 02:42:00,
2013-02-17 03:58:00,46.6,43.9,30.09,SW,225,0.0,0.0,90,0.00,,,0.00,meteohub,2013-02-17 02:58:00,
2013-02-17 04:13:00,47.1,43.9,30.08,SW,225,0.0,0.0,88,0.00,,,0.00,meteohub,2013-02-17 03:13:00,
2013-02-17 04:29:00,46.6,43.2,30.08,SW,225,0.0,0.0,88,0.00,,,0.00,meteohub,2013-02-17 03:29:00,
2013-02-17 04:44:00,45.9,42.8,30.07,SW,225,0.0,0.0,89,0.00,,,0.00,meteohub,2013-02-17 03:44:00,
2013-02-17 05:00:00,45.5,42.8,30.07,SW,225,0.0,0.0,90,0.00,,,0.00,meteohub,2013-02-17 04:00:00,
2013-02-17 05:15:00,45.3,42.6,30.07,SW,225,0.0,0.0,90,0.00,,,0.00,meteohub,2013-02-17 04:15:00,
2013-02-17 05:31:00,45.3,42.6,30.07,SW,225,0.0,0.0,90,0.00,,,0.00,meteohub,2013-02-17 04:31:00,
2013-02-17 05:47:00,45.0,41.9,30.07,SW,225,0.0,0.0,89,0.00,,,0.00,meteohub,2013-02-17 04:47:00,
2013-02-17 06:02:00,44.8,41.7,30.07,SW,225,0.0,0.0,89,0.00,,,0.00,meteohub,2013-02-17 05:02:00,
2013-02-17 06:18:00,44.8,41.7,30.06,SW,225,0.0,0.0,89,0.00,,,0.00,meteohub,2013-02-17 05:18:00,
2013-02-17 06:33:00,44.8,41.7,30.06,SW,225,0.0,1.0,89,0.00,,,0.00,meteohub,2013-02-17 05:33:00,
2013-02-17 06:49:00,44.8,42.1,30.06,SW,225,0.0,1.0,90,0.00,,,0.00,meteohub,2013-02-17 05:49:00,
2013-02-17 07:04:00,45.0,41.9,30.06,SW,225,0.0,1.0,89,0.00,,,0.00,meteohub,2013-02-17 06:04:00,
2013-02-17 07:19:00,45.1,42.1,30.06,SW,225,0.0,0.0,89,0.00,,,0.00,meteohub,2013-02-17 06:19:00,
2013-02-17 07:35:00,45.7,42.1,30.06,SW,225,0.0,0.0,87,0.00,,,0.00,meteohub,2013-02-17 06:35:00,
2013-02-17 07:50:00,45.7,42.3,30.06,SW,225,0.0,0.0,88,0.00,,,0.00,meteohub,2013-02-17 06:50:00,
2013-02-17 08:05:00,45.9,42.3,30.06,SW,225,0.0,0.0,87,0.00,,,0.00,meteohub,2013-02-17 07:05:00,
2013-02-17 08:20:00,46.2,42.8,30.06,SW,225,0.0,0.0,88,0.00,,,0.00,meteohub,2013-02-17 07:20:00,
2013-02-17 08:36:00,46.9,43.3,30.06,SW,225,0.0,0.0,87,0.00,,,0.00,meteohub,2013-02-17 07:36:00,
2013-02-17 08:52:00,47.3,43.7,30.06,SW,225,0.0,0.0,87,0.00,,,0.00,meteohub,2013-02-17 07:52:00,
2013-02-17 09:07:00,47.5,43.9,30.06,SW,225,0.0,0.0,87,0.00,,,0.00,meteohub,2013-02-17 08:07:00,
2013-02-17 09:23:00,48.0,44.4,30.06,SW,225,0.0,1.0,87,0.00,,,0.00,meteohub,2013-02-17 08:23:00,
2013-02-17 09:38:00,48.9,45.0,30.06,SW,225,0.0,1.0,86,0.00,,,0.00,meteohub,2013-02-17 08:38:00,
2013-02-17 09:53:00,50.9,46.4,30.06,SSW,203,1.0,3.0,84,0.00,,,0.00,meteohub,2013-02-17 08:53:00,
2013-02-17 10:09:00,51.3,46.2,30.06,SSW,203,2.0,3.0,83,0.00,,,0.00,meteohub,2013-02-17 09:09:00,
2013-02-17 10:24:00,51.6,46.6,30.06,SSW,203,1.0,3.0,83,0.00,,,0.00,meteohub,2013-02-17 09:24:00,
2013-02-17 10:40:00,52.2,47.1,30.06,SSW,203,1.0,3.0,83,0.00,,,0.00,meteohub,2013-02-17 09:40:00,
2013-02-17 10:55:00,53.1,47.1,30.06,SSW,203,2.0,6.0,80,0.00,,,0.00,meteohub,2013-02-17 09:55:00,
2013-02-17 11:11:00,53.2,46.9,30.06,South,180,4.0,6.0,79,0.00,,,0.00,meteohub,2013-02-17 10:11:00,
2013-02-17 11:26:00,53.4,46.9,30.06,SW,225,3.0,9.0,78,0.00,,,0.00,meteohub,2013-02-17 10:26:00,
2013-02-17 11:42:00,53.8,47.1,30.06,SW,225,3.0,6.0,78,0.00,,,0.00,meteohub,2013-02-17 10:42:00,
2013-02-17 11:57:00,54.0,46.8,30.06,WSW,248,4.0,9.0,76,0.00,,,0.00,meteohub,2013-02-17 10:57:00,
2013-02-17 12:13:00,53.8,46.6,30.05,WSW,248,3.0,5.0,76,0.00,,,0.00,meteohub,2013-02-17 11:13:00,
2013-02-17 12:28:00,53.8,46.6,30.05,SW,225,2.0,5.0,76,0.00,,,0.00,meteohub,2013-02-17 11:28:00,
2013-02-17 12:43:00,53.2,46.6,30.04,WSW,248,3.0,7.0,78,0.00,,,0.00,meteohub,2013-02-17 11:43:00,
2013-02-17 12:58:00,53.2,46.8,30.04,WSW,248,4.0,7.0,78,0.00,,,0.00,meteohub,2013-02-17 11:58:00,
2013-02-17 13:13:00,53.2,46.4,30.03,WSW,248,6.0,8.0,77,0.00,,,0.00,meteohub,2013-02-17 12:13:00,
2013-02-17 13:29:00,53.2,45.9,30.02,WSW,248,5.0,8.0,76,0.00,,,0.00,meteohub,2013-02-17 12:29:00,
2013-02-17 13:44:00,53.8,46.2,30.01,SW,225,3.0,8.0,75,0.00,,,0.00,meteohub,2013-02-17 12:44:00,
2013-02-17 14:00:00,53.6,46.2,30.01,SW,225,4.0,5.0,76,0.00,,,0.00,meteohub,2013-02-17 13:00:00,
2013-02-17 14:15:00,53.8,46.4,30.01,WSW,248,4.0,8.0,76,0.00,,,0.00,meteohub,2013-02-17 13:15:00,
2013-02-17 14:30:00,53.4,46.2,30.00,WSW,248,4.0,7.0,76,0.00,,,0.00,meteohub,2013-02-17 13:30:00,
2013-02-17 14:46:00,53.4,46.0,30.00,WSW,248,3.0,7.0,76,0.00,,,0.00,meteohub,2013-02-17 13:46:00,
2013-02-17 15:01:00,53.6,46.8,29.99,SW,225,4.0,6.0,77,0.00,,,0.00,meteohub,2013-02-17 14:01:00,
2013-02-17 15:17:00,53.4,46.9,29.99,WSW,248,4.0,7.0,78,0.00,,,0.00,meteohub,2013-02-17 14:17:00,
2013-02-17 15:32:00,53.4,47.1,29.99,SW,225,3.0,7.0,79,0.00,,,0.00,meteohub,2013-02-17 14:32:00,
2013-02-17 15:48:00,53.4,47.1,29.99,WSW,248,4.0,7.0,79,0.00,,,0.00,meteohub,2013-02-17 14:48:00,
2013-02-17 16:04:00,54.0,46.9,29.98,SW,225,4.0,8.0,77,0.00,,,0.00,meteohub,2013-02-17 15:04:00,
2013-02-17 16:19:00,54.0,46.9,29.98,SW,225,4.0,7.0,77,0.00,,,0.00,meteohub,2013-02-17 15:19:00,
2013-02-17 16:34:00,54.1,47.1,29.98,WSW,248,4.0,8.0,77,0.00,,,0.00,meteohub,2013-02-17 15:34:00,
2013-02-17 16:50:00,54.0,47.1,29.98,SW,225,4.0,7.0,77,0.00,,,0.00,meteohub,2013-02-17 15:50:00,
2013-02-17 17:05:00,54.0,48.0,29.98,SW,225,3.0,6.0,80,0.00,,,0.00,meteohub,2013-02-17 16:05:00,
2013-02-17 17:21:00,53.4,47.3,29.97,SW,225,4.0,7.0,79,0.00,,,0.00,meteohub,2013-02-17 16:21:00,
2013-02-17 17:36:00,53.2,48.2,29.98,SW,225,4.0,8.0,83,0.00,,,0.00,meteohub,2013-02-17 16:36:00,
2013-02-17 17:52:00,53.1,48.0,29.97,WSW,248,4.0,6.0,83,0.00,,,0.00,meteohub,2013-02-17 16:52:00,
2013-02-17 18:07:00,52.7,47.7,29.97,WSW,248,3.0,6.0,83,0.00,,,0.00,meteohub,2013-02-17 17:07:00,
2013-02-17 18:23:00,52.5,47.8,29.97,SW,225,3.0,7.0,84,0.00,,,0.00,meteohub,2013-02-17 17:23:00,
2013-02-17 18:38:00,52.3,48.0,29.98,SW,225,2.0,5.0,85,0.00,,,0.00,meteohub,2013-02-17 17:38:00,
2013-02-17 18:53:00,52.2,48.0,29.98,SW,225,1.0,5.0,86,0.00,,,0.00,meteohub,2013-02-17 17:53:00,
2013-02-17 19:09:00,52.2,48.0,29.98,SW,225,1.0,4.0,86,0.00,,,0.00,meteohub,2013-02-17 18:09:00,
2013-02-17 19:25:00,52.0,47.7,29.97,SW,225,1.0,3.0,85,0.00,,,0.00,meteohub,2013-02-17 18:25:00,
2013-02-17 19:40:00,51.8,47.7,29.98,SSW,203,1.0,3.0,86,0.00,,,0.00,meteohub,2013-02-17 18:40:00,
2013-02-17 19:55:00,51.6,47.5,29.98,SSW,203,1.0,3.0,86,0.00,,,0.00,meteohub,2013-02-17 18:55:00,
2013-02-17 20:11:00,51.4,47.5,29.98,SW,225,1.0,3.0,86,0.00,,,0.00,meteohub,2013-02-17 19:11:00,
2013-02-17 20:27:00,51.4,47.7,29.98,SW,225,1.0,3.0,87,0.00,,,0.00,meteohub,2013-02-17 19:27:00,
2013-02-17 20:42:00,51.4,47.7,29.98,SW,225,0.0,1.0,87,0.00,,,0.00,meteohub,2013-02-17 19:42:00,
2013-02-17 20:58:00,51.4,47.7,29.98,SW,225,0.0,2.0,87,0.00,,,0.00,meteohub,2013-02-17 19:58:00,
2013-02-17 21:14:00,51.3,47.5,29.98,SW,225,0.0,2.0,87,0.00,,,0.00,meteohub,2013-02-17 20:14:00,
2013-02-17 21:29:00,51.3,47.8,29.98,SW,225,0.0,0.0,88,0.00,,,0.00,meteohub,2013-02-17 20:29:00,
2013-02-17 21:45:00,51.3,47.8,29.98,SW,225,0.0,1.0,88,0.00,,,0.00,meteohub,2013-02-17 20:45:00,
2013-02-17 22:00:00,51.3,47.8,29.98,SW,225,0.0,0.0,88,0.00,,,0.00,meteohub,2013-02-17 21:00:00,
2013-02-17 22:15:00,51.3,48.2,29.98,SW,225,1.0,2.0,89,0.00,,,0.00,meteohub,2013-02-17 21:15:00,
2013-02-17 22:31:00,51.3,48.2,29.97,SW,225,1.0,2.0,89,0.00,,,0.00,meteohub,2013-02-17 21:31:00,
2013-02-17 22:46:00,51.1,48.0,29.97,SSW,203,1.0,3.0,89,0.00,,,0.00,meteohub,2013-02-17 21:46:00,
2013-02-17 23:01:00,51.1,48.0,29.97,SSW,203,0.0,1.0,89,0.00,,,0.00,meteohub,2013-02-17 22:01:00,
2013-02-17 23:17:00,51.1,48.2,29.97,SSW,203,0.0,3.0,90,0.00,,,0.00,meteohub,2013-02-17 22:17:00,
2013-02-17 23:32:00,51.1,48.2,29.97,SSW,203,1.0,2.0,90,0.00,,,0.00,meteohub,2013-02-17 22:32:00,
2013-02-17 23:48:00,51.3,48.2,29.96,SSW,203,1.0,3.0,89,0.00,,,0.00,meteohub,2013-02-17 22:48:00,